H1 CPF 2 NER 2024 5 29 9 150 01 glonass145 H2 2213001 9145 54031 2024 5 29 0 0 0 2024 6 1 23 45 0 900 1 1 0 0 0 1 H9 10 0 60459 0.00000 0 10733508.392 2744741.955 -22976693.308 10 0 60459 900.00000 0 10659166.319 5549981.385 -22501702.862 10 0 60459 1800.00000 0 10786444.715 8267723.755 -21589815.795 10 0 60459 2700.00000 0 11097578.380 10831512.908 -20258797.769 10 0 60459 3600.00000 0 11563636.957 13180303.117 -18534538.450 10 0 60459 4500.00000 0 12145826.163 15260761.231 -16450547.097 10 0 60459 5400.00000 0 12797219.679 17029252.791 -14047301.539 10 0 60459 6300.00000 0 13464848.632 18453430.619 -11371462.950 10 0 60459 7200.00000 0 14092060.550 19513360.772 -8474971.396 10 0 60459 8100.00000 0 14621048.382 20202140.050 -5414039.454 10 0 60459 9000.00000 0 14995442.938 20525980.324 -2248063.228 10 0 60459 9900.00000 0 15162859.341 20503757.189 961528.214 10 0 60459 10800.00000 0 15077289.956 20166042.807 4152462.692 10 0 60459 11700.00000 0 14701242.595 19553664.314 7262830.999 10 0 60459 12600.00000 0 14007533.462 18715849.032 10232285.745 10 0 60459 13500.00000 0 12980658.691 17708034.889 13003209.758 10 0 60459 14400.00000 0 11617685.993 16589438.419 15521831.449 10 0 60459 15300.00000 0 9928627.955 15420482.695 17739265.661 10 0 60459 16200.00000 0 7936280.163 14260193.282 19612460.071 10 0 60459 17100.00000 0 5675529.571 13163671.452 21105029.146 10 0 60459 18000.00000 0 3192160.596 12179750.557 22187959.777 10 0 60459 18900.00000 0 541207.226 11348933.679 22840175.248 10 0 60459 19800.00000 0 -2215081.760 10701698.885 23048946.787 10 0 60459 20700.00000 0 -5009581.215 10257243.039 22810144.743 10 0 60459 21600.00000 0 -7772835.842 10022716.843 22128324.352 10 0 60459 22500.00000 0 -10435709.535 9992983.320 21016644.041 10 0 60459 23400.00000 0 -12932028.693 10150910.031 19496617.260 10 0 60459 24300.00000 0 -15201110.261 10468183.049 17597701.943 10 0 60459 25200.00000 0 -17190069.814 10906608.696 15356734.769 10 0 60459 26100.00000 0 -18855813.733 11419848.418 12817220.460 10 0 60459 27000.00000 0 -20166632.524 11955513.751 10028489.329 10 0 60459 27900.00000 0 -21103328.743 12457532.803 7044739.031 10 0 60459 28800.00000 0 -21659832.445 12868687.906 3923979.069 10 0 60459 29700.00000 0 -21843278.562 13133216.516 726898.783 10 0 60459 30600.00000 0 -21673543.379 13199364.506 -2484318.676 10 0 60459 31500.00000 0 -21182260.182 13021782.759 -5647212.567 10 0 60459 32400.00000 0 -20411356.328 12563664.573 -8700266.430 10 0 60459 33300.00000 0 -19411174.310 11798532.323 -11584110.967 10 0 60459 34200.00000 0 -18238256.995 10711596.795 -14242683.689 10 0 60459 35100.00000 0 -16952891.368 9300630.815 -16624322.140 10 0 60459 36000.00000 0 -15616515.084 7576319.462 -18682769.140 10 0 60459 36900.00000 0 -14289095.674 5562071.372 -20378070.384 10 0 60459 37800.00000 0 -13026592.985 3293298.369 -21677347.228 10 0 60459 38700.00000 0 -11878611.510 816192.973 -22555430.144 10 0 60459 39600.00000 0 -10886340.930 -1813945.684 -22995341.160 10 0 60459 40500.00000 0 -10080870.636 -4534768.279 -22988616.695 10 0 60459 41400.00000 0 -9481948.125 -7279229.058 -22535465.197 10 0 60459 42300.00000 0 -9097232.315 -9978139.642 -21644757.170 10 0 60459 43200.00000 0 -8922072.049 -12562817.531 -20333848.204 10 0 60459 44100.00000 0 -8939818.031 -14967720.042 -18628238.688 10 0 60459 45000.00000 0 -9122654.162 -17132955.078 -16561076.869 10 0 60459 45900.00000 0 -9432912.565 -19006565.276 -14172514.792 10 0 60459 46800.00000 0 -9824816.368 -20546491.383 -11508929.360 10 0 60459 47700.00000 0 -10246576.403 -21722134.003 -8622023.388 10 0 60459 48600.00000 0 -10642753.186 -22515449.462 -5567823.842 10 0 60459 49500.00000 0 -10956784.294 -22921534.929 -2405596.440 10 0 60459 50400.00000 0 -11133570.334 -22948679.121 803302.374 10 0 60459 51300.00000 0 -11122010.113 -22617877.246 3996613.896 10 0 60459 52200.00000 0 -10877377.740 -21961831.205 7112383.007 10 0 60459 53100.00000 0 -10363440.941 -21023477.553 10090157.925 10 0 60459 54000.00000 0 -9554230.733 -19854105.437 12872160.636 10 0 60459 54900.00000 0 -8435387.176 -18511143.786 15404405.363 10 0 60459 55800.00000 0 -7005023.679 -17055710.736 17637743.525 10 0 60459 56700.00000 0 -5274072.409 -15550028.078 19528815.183 10 0 60459 57600.00000 0 -3266095.011 -14054808.938 21040888.870 10 0 60459 58500.00000 0 -1016565.083 -12626727.921 22144573.842 10 0 60459 59400.00000 0 1428349.217 -11316079.296 22818391.258 10 0 60459 60300.00000 0 4013453.290 -10164720.903 23049193.442 10 0 60459 61200.00000 0 6676577.046 -9204389.516 22832423.111 10 0 60459 62100.00000 0 9350924.839 -8455457.872 22172207.406 10 0 60459 63000.00000 0 11967627.957 -7926185.206 21081284.492 10 0 60459 63900.00000 0 14458394.579 -7612492.574 19580763.600 10 0 60459 64800.00000 0 16758147.752 -7498272.306 17699722.416 10 0 60459 65700.00000 0 18807542.075 -7556218.558 15474648.844 10 0 60459 66600.00000 0 20555254.424 -7749143.932 12948737.233 10 0 60459 67500.00000 0 21959953.175 -8031726.588 10171052.107 10 0 60459 68400.00000 0 22991863.530 -8352613.824 7195575.238 10 0 60459 69300.00000 0 23633863.260 -8656792.823 4080154.489 10 0 60459 70200.00000 0 23882062.902 -8888127.636 885375.049 10 0 60459 71100.00000 0 23745846.096 -8991954.203 -2326624.505 10 0 60459 72000.00000 0 23247368.655 -8917622.490 -5493367.555 10 0 60459 72900.00000 0 22420537.921 -8620876.998 -8553261.665 10 0 60459 73800.00000 0 21309516.030 -8065973.705 -11446803.054 10 0 60459 74700.00000 0 19966810.933 -7227442.750 -14117739.004 10 0 60459 75600.00000 0 18451036.366 -6091421.304 -16514164.979 10 0 60459 76500.00000 0 16824435.815 -4656499.416 -18589534.761 10 0 60459 77400.00000 0 15150275.230 -2934042.345 -20303563.847 10 0 60459 78300.00000 0 13490214.411 -947975.085 -21623008.784 10 0 60459 79200.00000 0 11901767.444 1265962.608 -22522307.791 10 0 60459 80100.00000 0 10435958.434 3661460.088 -22984070.836 10 0 60459 81000.00000 0 9135270.146 6183327.278 -22999410.427 10 0 60459 81900.00000 0 8031970.550 8769563.797 -22568107.408 10 0 60459 82800.00000 0 7146886.207 11353720.216 -21698609.163 10 0 60459 83700.00000 0 6488672.594 13867453.878 -20407860.740 10 0 60459 84600.00000 0 6053610.568 16243173.740 -18720972.405 10 0 60459 85500.00000 0 5825936.264 18416664.941 -16670730.167 10 0 60460 0.00000 0 5778689.365 20329584.516 -14296958.890 10 0 60460 900.00000 0 5875043.113 21931726.093 -11645748.765 10 0 60460 1800.00000 0 6070059.304 23182957.392 -8768563.179 10 0 60460 2700.00000 0 6312793.626 24054753.813 -5721240.751 10 0 60460 3600.00000 0 6548662.181 24531262.108 -2562913.805 10 0 60460 4500.00000 0 6721968.897 24609851.297 645137.056 10 0 60460 5400.00000 0 6778486.800 24301128.181 3840669.932 10 0 60460 6300.00000 0 6667983.837 23628417.267 6961687.124 10 0 60460 7200.00000 0 6346586.210 22626727.303 9947635.702 10 0 60460 8100.00000 0 5778879.018 21341248.047 12740579.890 10 0 60460 9000.00000 0 4939655.011 19825440.479 15286322.584 10 0 60460 9900.00000 0 3815236.992 18138800.518 17535454.381 10 0 60460 10800.00000 0 2404317.271 16344389.835 19444310.055 10 0 60460 11700.00000 0 718277.680 14506236.875 20975814.235 10 0 60460 12600.00000 0 -1219024.636 12686716.491 22100200.240 10 0 60460 13500.00000 0 -3371998.255 10944017.279 22795588.446 10 0 60460 14400.00000 0 -5694556.039 9329801.939 23048413.212 10 0 60460 15300.00000 0 -8131801.194 7887157.932 22853690.096 10 0 60460 16200.00000 0 -10622092.177 6648923.520 22215118.095 10 0 60460 17100.00000 0 -13099401.881 5636458.729 21145014.506 10 0 60460 18000.00000 0 -15495874.079 4858912.236 19664083.135 10 0 60460 18900.00000 0 -17744471.561 4313014.555 17801019.626 10 0 60460 19800.00000 0 -19781606.262 3983405.863 15591960.764 10 0 60460 20700.00000 0 -21549641.890 3843484.421 13079787.692 10 0 60460 21600.00000 0 -22999164.617 3856739.512 10313295.937 10 0 60460 22500.00000 0 -24090926.636 3978512.294 7346247.915 10 0 60460 23400.00000 0 -24797380.886 4158109.667 4236326.239 10 0 60460 24300.00000 0 -25103742.251 4341181.050 1044008.313 10 0 60460 25200.00000 0 -25008530.419 4472256.646 -2168615.429 10 0 60460 26100.00000 0 -24523571.500 4497338.632 -5339055.919 10 0 60460 27000.00000 0 -23673458.440 4366434.426 -8405647.987 10 0 60460 27900.00000 0 -22494493.278 4035923.539 -11308756.379 10 0 60460 28800.00000 0 -21033156.288 3470656.661 -13991940.876 10 0 60460 29700.00000 0 -19344167.017 2645697.129 -16403057.254 10 0 60460 30600.00000 0 -17488219.416 1547630.209 -18495272.249 10 0 60460 31500.00000 0 -15529486.754 175384.113 -20227972.695 10 0 60460 32400.00000 0 -13533001.433 -1459472.568 -21567551.360 10 0 60460 33300.00000 0 -11562019.600 -3332970.225 -22488054.713 10 0 60460 34200.00000 0 -9675480.740 -5409504.932 -22971680.641 10 0 60460 35100.00000 0 -7925667.967 -7643101.028 -23009117.230 10 0 60460 36000.00000 0 -6356165.935 -9979117.450 -22599716.745 10 0 60460 36900.00000 0 -5000200.585 -12356327.191 -21751502.071 10 0 60460 37800.00000 0 -3879428.742 -14709283.890 -20481005.979 10 0 60460 38700.00000 0 -3003226.676 -16970877.627 -18812946.581 10 0 60460 39600.00000 0 -2368505.897 -19074974.118 -16779745.386 10 0 60460 40500.00000 0 -1960062.429 -20959028.038 -14420897.182 10 0 60460 41400.00000 0 -1751443.555 -22566562.167 -11782203.755 10 0 60460 42300.00000 0 -1706294.476 -23849409.527 -8914886.063 10 0 60460 43200.00000 0 -1780127.239 -24769625.384 -5874591.798 10 0 60460 44100.00000 0 -1922436.639 -25300989.723 -2720317.356 10 0 60460 45000.00000 0 -2079073.252 -25430037.649 486734.952 10 0 60460 45900.00000 0 -2194772.946 -25156574.983 3684342.376 10 0 60460 46800.00000 0 -2215735.647 -24493657.634 6810466.890 10 0 60460 47700.00000 0 -2092144.052 -23467035.860 9804456.564 10 0 60460 48600.00000 0 -1780515.542 -22114086.758 12608219.900 10 0 60460 49500.00000 0 -1245787.527 -20482279.737 15167350.379 10 0 60460 50400.00000 0 -463047.699 -18627239.121 17432179.542 10 0 60460 51300.00000 0 581164.492 -16610484.743 19358738.437 10 0 60460 52200.00000 0 1888040.851 -14496944.627 20909609.129 10 0 60460 53100.00000 0 3446207.444 -12352343.248 22054650.083 10 0 60460 54000.00000 0 5231961.461 -10240573.840 22771581.691 10 0 60460 54900.00000 0 7210033.550 -8221163.743 23046420.846 10 0 60460 55800.00000 0 9334845.402 -6346937.883 22873756.172 10 0 60460 56700.00000 0 11552211.662 -4661977.169 22256858.452 10 0 60460 57600.00000 0 13801416.731 -3199956.361 21207623.777 10 0 60460 58500.00000 0 16017581.098 -1982930.247 19746349.921 10 0 60460 59400.00000 0 18134219.588 -1020618.321 17901349.609 10 0 60460 60300.00000 0 20085885.479 -310217.434 15708407.351 10 0 60460 61200.00000 0 21810790.420 163250.235 13210089.635 10 0 60460 62100.00000 0 23253290.679 426068.982 10454921.224 10 0 60460 63000.00000 0 24366135.394 514478.300 7496443.100 10 0 60460 63900.00000 0 25112382.165 472896.154 4392170.223 10 0 60460 64800.00000 0 25466899.072 351792.643 1202469.539 10 0 60460 65700.00000 0 25417389.493 205304.911 -2010619.547 10 0 60460 66600.00000 0 24964896.212 88695.330 -5184598.521 10 0 60460 67500.00000 0 24123763.369 55761.715 -8257732.498 10 0 60460 68400.00000 0 22921057.829 156310.494 -11170257.657 10 0 60460 69300.00000 0 21395474.480 433800.951 -13865549.009 10 0 60460 70200.00000 0 19595771.848 923261.344 -16291225.114 10 0 60460 71100.00000 0 17578804.188 1649565.942 -18400167.871 10 0 60460 72000.00000 0 15407233.079 2626146.574 -20151437.383 10 0 60460 72900.00000 0 13147014.809 3854193.687 -21511064.322 10 0 60460 73800.00000 0 10864768.828 5322381.164 -22452704.840 10 0 60460 74700.00000 0 8625137.238 7007126.973 -22958145.942 10 0 60460 75600.00000 0 6488245.132 8873379.224 -23017652.216 10 0 60460 76500.00000 0 4507367.003 10875895.236 -22630147.985 10 0 60460 77400.00000 0 2726895.524 12960960.645 -21803231.941 10 0 60460 78300.00000 0 1180696.085 15068477.311 -20553024.520 10 0 60460 79200.00000 0 -109085.778 17134333.462 -18903851.224 10 0 60460 80100.00000 0 -1132715.850 19092957.746 -16887768.180 10 0 60460 81000.00000 0 -1893034.333 20879951.181 -14543939.025 10 0 60460 81900.00000 0 -2405085.313 22434687.681 -11917874.988 10 0 60460 82800.00000 0 -2695229.541 23702774.967 -9060552.669 10 0 60460 83700.00000 0 -2799779.081 24638273.400 -6027426.332 10 0 60460 84600.00000 0 -2763212.282 25205580.201 -2877353.641 10 0 60460 85500.00000 0 -2636045.151 25380900.380 328544.437 10 0 60461 0.00000 0 -2472449.590 25153242.917 3528067.240 10 0 60461 900.00000 0 -2327719.439 24524900.282 6659140.265 10 0 60461 1800.00000 0 -2255692.045 23511391.568 9661015.571 10 0 60461 2700.00000 0 -2306234.245 22140871.065 12475449.117 10 0 60461 3600.00000 0 -2522899.575 20453027.076 15047828.003 10 0 60461 4500.00000 0 -2940855.875 18497516.707 17328227.552 10 0 60461 5400.00000 0 -3585171.217 16332001.682 19272377.710 10 0 60461 6300.00000 0 -4469531.088 14019866.762 20842520.349 10 0 60461 7200.00000 0 -5595441.641 11627715.378 22008141.169 10 0 60461 8100.00000 0 -6951953.624 9222746.252 22746562.357 10 0 60461 9000.00000 0 -8515919.867 6870119.561 23043384.750 10 0 60461 9900.00000 0 -10252776.985 4630421.576 22892771.006 10 0 60461 10800.00000 0 -12117820.100 2557332.613 22297564.181 10 0 60461 11700.00000 0 -14057918.800 695594.657 21269239.084 10 0 60461 12600.00000 0 -16013603.948 -920637.287 19827686.791 10 0 60461 13500.00000 0 -17921439.291 -2268991.989 18000835.822 10 0 60461 14400.00000 0 -19716579.552 -3339577.524 15824116.521 10 0 60461 15300.00000 0 -21335408.499 -4135146.996 13339778.265 10 0 60461 16200.00000 0 -22718146.632 -4670728.110 10596072.113 10 0 60461 17100.00000 0 -23811319.034 -4972732.810 7646314.274 10 0 60461 18000.00000 0 -24569979.320 -5077585.166 4547848.451 10 0 60461 18900.00000 0 -24959595.621 -5029926.263 1360927.354 10 0 60461 19800.00000 0 -24957518.587 -4880472.862 -1852464.478 10 0 60461 20700.00000 0 -24553968.926 -4683621.473 -5029822.895 10 0 60461 21600.00000 0 -23752502.351 -4494900.413 -8109346.997 10 0 60461 22500.00000 0 -22569931.952 -4368378.929 -11031147.936 10 0 60461 23400.00000 0 -21035711.090 -4354144.238 -13738419.239 10 0 60461 24300.00000 0 -19190802.777 -4495954.349 -16178545.229 10 0 60461 25200.00000 0 -17086083.182 -4829166.863 -18304125.527 10 0 60461 26100.00000 0 -14780346.492 -5379032.021 -20073895.574 10 0 60461 27000.00000 0 -12337994.929 -6159422.646 -21453525.437 10 0 60461 27900.00000 0 -9826510.616 -7172054.929 -22416281.831 10 0 60461 28800.00000 0 -7313814.827 -8406233.234 -22943541.093 10 0 60461 29700.00000 0 -4865624.416 -9839129.926 -23025143.933 10 0 60461 30600.00000 0 -2542914.909 -11436588.833 -22659585.772 10 0 60461 31500.00000 0 -399595.051 -13154418.995 -21854039.659 10 0 60461 32400.00000 0 1519511.652 -14940124.940 -20624211.820 10 0 60461 33300.00000 0 3180295.693 -16735001.567 -18994032.945 10 0 60461 34200.00000 0 4560534.343 -18476506.482 -16995191.309 10 0 60461 35100.00000 0 5650561.163 -20100811.068 -14666516.721 10 0 60461 36000.00000 0 6453405.919 -21545424.046 -12053227.036 10 0 60461 36900.00000 0 6984400.600 -22751778.126 -9206051.586 10 0 60461 37800.00000 0 7270269.521 -23667671.730 -6180248.262 10 0 60461 38700.00000 0 7347742.947 -24249463.728 -3034533.064 10 0 60461 39600.00000 0 7261753.649 -24463929.230 170057.247 10 0 60461 40500.00000 0 7063293.202 -24289698.618 3371347.398 10 0 60461 41400.00000 0 6807019.089 -23718219.284 6507227.855 10 0 60461 42300.00000 0 6548714.128 -22754199.530 9516857.621 10 0 60461 43200.00000 0 6342705.829 -21415515.674 12341842.280 10 0 60461 44100.00000 0 6239354.977 -19732585.801 14927364.455 10 0 60461 45000.00000 0 6282719.684 -17747235.897 17223244.877 10 0 60461 45900.00000 0 6508493.788 -15511105.156 19184913.716 10 0 60461 46800.00000 0 6942306.897 -13083656.344 20774273.662 10 0 60461 47700.00000 0 7598458.208 -10529873.488 21960438.342 10 0 60461 48600.00000 0 8479138.127 -7917741.972 22720332.108 10 0 60461 49500.00000 0 9574171.309 -5315615.059 23039139.821 10 0 60461 50400.00000 0 10861293.097 -2789575.527 22910597.978 10 0 60461 51300.00000 0 12306948.971 -400901.299 22337121.468 10 0 60461 52200.00000 0 13867584.918 1796260.387 21329763.159 10 0 60461 53100.00000 0 15491375.906 3756914.175 19908006.575 10 0 60461 54000.00000 0 17120321.247 5446849.686 18099394.988 10 0 60461 54900.00000 0 18692619.988 6843819.013 15939003.341 10 0 60461 55800.00000 0 20145227.344 7938209.998 13468762.466 10 0 60461 56700.00000 0 21416485.194 8733187.728 10736648.060 10 0 60461 57600.00000 0 22448716.085 9244298.922 7795749.668 10 0 60461 58500.00000 0 23190671.301 9498556.576 4703237.602 10 0 60461 59400.00000 0 23599729.326 9533044.232 1519247.978 10 0 60461 60300.00000 0 23643751.337 9393099.693 -1694292.062 10 0 60461 61200.00000 0 23302514.669 9130155.981 -4874875.373 10 0 60461 62100.00000 0 22568663.041 8799331.990 -7960637.707 10 0 60461 63000.00000 0 21448132.799 8456875.954 -10891567.784 10 0 60461 63900.00000 0 19960036.712 8157571.092 -13610680.106 10 0 60461 64800.00000 0 18136009.872 7952214.254 -16065127.009 10 0 60461 65700.00000 0 16019045.012 7885275.126 -18207227.875 10 0 60461 66600.00000 0 13661866.104 7992835.600 -19995395.302 10 0 60461 67500.00000 0 11124908.353 8300896.812 -21394940.374 10 0 60461 68400.00000 0 8473989.019 8824125.538 -22378741.797 10 0 60461 69300.00000 0 5777766.231 9565092.914 -22927766.512 10 0 60461 70200.00000 0 3105091.353 10514037.562 -23031432.400 10 0 60461 71100.00000 0 522364.609 11649163.110 -22687806.797 10 0 60461 72000.00000 0 -1908996.816 12937457.694 -21903637.625 10 0 60461 72900.00000 0 -4134873.962 14336001.193 -20694217.078 10 0 60461 73800.00000 0 -6110449.589 15793705.618 -19083080.803 10 0 60461 74700.00000 0 -7801818.022 17253415.977 -17101548.588 10 0 60461 75600.00000 0 -9187135.881 18654283.954 -14788115.361 10 0 60461 76500.00000 0 -10257267.303 19934315.229 -12187704.150 10 0 60461 77400.00000 0 -11015898.282 21032983.949 -9350795.200 10 0 60461 78300.00000 0 -11479116.823 21893804.937 -6332447.887 10 0 60461 79200.00000 0 -11674477.889 22466755.831 -3191234.126 10 0 60461 80100.00000 0 -11639593.587 22710447.463 11896.177 10 0 60461 81000.00000 0 -11420308.882 22593951.235 3214795.681 10 0 60461 81900.00000 0 -11068540.476 22098206.496 6355323.337 10 0 60461 82800.00000 0 -10639870.544 21216948.429 9372547.821 10 0 60461 83700.00000 0 -10190997.286 19957117.038 12207927.362 10 0 60461 84600.00000 0 -9777150.123 18338729.453 14806443.095 10 0 60461 85500.00000 0 -9449578.808 16394220.175 17117664.061 10 0 60462 0.00000 0 -9253222.490 14167276.277 19096723.265 10 0 60462 900.00000 0 -9224657.081 11711214.059 20705187.173 10 0 60462 1800.00000 0 -9390407.833 9086966.936 21911799.531 10 0 60462 2700.00000 0 -9765698.180 6360763.433 22693088.982 10 0 60462 3600.00000 0 -10353688.281 3601593.734 23033826.212 10 0 60462 4500.00000 0 -11145235.868 878568.009 22927322.984 10 0 60462 5400.00000 0 -12119190.363 -1741724.521 22375567.006 10 0 60462 6300.00000 0 -13243208.950 -4197746.959 21389189.693 10 0 60462 7200.00000 0 -14475061.441 -6435332.093 19987266.950 10 0 60462 8100.00000 0 -15764370.186 -8409690.069 18196956.164 10 0 60462 9000.00000 0 -17054712.914 -10087023.359 16052975.649 10 0 60462 9900.00000 0 -18286000.802 -11445682.216 13596935.890 10 0 60462 10800.00000 0 -19397032.183 -12476812.807 10876534.894 10 0 60462 11700.00000 0 -20328114.485 -13184471.502 7944632.757 10 0 60462 12600.00000 0 -21023643.658 -13585201.060 4858223.223 10 0 60462 13500.00000 0 -21434531.816 -13707087.325 1677322.354 10 0 60462 14400.00000 0 -21520379.846 -13588336.985 -1536203.784 10 0 60462 15300.00000 0 -21251302.422 -13275437.395 -4719848.866 10 0 60462 16200.00000 0 -20609327.385 -12820977.289 -7811689.163 10 0 60462 17100.00000 0 -19589309.564 -12281221.648 -10751594.805 10 0 60462 18000.00000 0 -18199319.705 -11713544.395 -13482405.000 10 0 60462 18900.00000 0 -16460491.497 -11173828.583 -15951043.620 10 0 60462 19800.00000 0 -14406332.645 -10713944.796 -18109553.008 10 0 60462 20700.00000 0 -12081528.630 -10379415.044 -19916025.680 10 0 60462 21600.00000 0 -9540289.032 -10207361.129 -21335415.949 10 0 60462 22500.00000 0 -6844305.412 -10224824.219 -22340216.108 10 0 60462 23400.00000 0 -4060405.756 -10447526.373 -22910984.614 10 0 60462 24300.00000 0 -1258002.937 -10879125.967 -23036716.766 10 0 60462 25200.00000 0 1493557.193 -11510998.052 -22715051.429 10 0 60462 26100.00000 0 4127638.433 -12322548.618 -21952310.448 10 0 60462 27000.00000 0 6582838.740 -13282049.316 -20763370.531 10 0 60462 27900.00000 0 8805292.822 -14347957.510 -19171370.430 10 0 60462 28800.00000 0 10750658.342 -15470666.205 -17207259.223 10 0 60462 29700.00000 0 12385704.536 -16594610.490 -14909194.424 10 0 60462 30600.00000 0 13689438.538 -17660642.216 -12321801.417 10 0 60462 31500.00000 0 14653723.885 -18608573.332 -9495308.301 10 0 60462 32400.00000 0 15283366.822 -19379781.159 -6484572.683 10 0 60462 33300.00000 0 15595668.143 -19919766.202 -3348018.992 10 0 60462 34200.00000 0 15619460.549 -20180554.873 -146506.833 10 0 60462 35100.00000 0 15393673.034 -20122845.961 3057847.800 10 0 60462 36000.00000 0 14965483.527 -19717810.263 6202875.615 10 0 60462 36900.00000 0 14388138.241 -18948467.269 9227557.995 10 0 60462 37800.00000 0 13718530.081 -17810580.459 12073208.520 10 0 60462 38700.00000 0 13014638.485 -16313032.891 14684609.164 10 0 60462 39600.00000 0 12332938.775 -14477666.448 17011079.174 10 0 60462 40500.00000 0 11725890.210 -12338590.511 19007456.163 10 0 60462 41400.00000 0 11239608.587 -9940987.810 20634970.666 10 0 60462 42300.00000 0 10911821.320 -7339466.177 21861997.519 10 0 60462 43200.00000 0 10770191.103 -4596023.667 22664669.833 10 0 60462 44100.00000 0 10831078.806 -1777710.466 23027343.943 10 0 60462 45000.00000 0 11098797.879 1045916.316 22942906.381 10 0 60462 45900.00000 0 11565392.089 3805440.404 22412916.899 10 0 60462 46800.00000 0 12210946.538 6434227.678 21447584.457 10 0 60462 47700.00000 0 13004419.625 8870952.204 20065576.146 10 0 60462 48600.00000 0 13904961.778 11061902.682 18293662.089 10 0 60462 49500.00000 0 14863666.239 12962973.964 16166202.447 10 0 60462 50400.00000 0 15825678.832 14541261.086 13724485.673 10 0 60462 51300.00000 0 16732578.251 15776189.695 11015930.238 10 0 60462 52200.00000 0 17524926.649 16660136.014 8093164.761 10 0 60462 53100.00000 0 18144882.729 17198510.786 5013004.235 10 0 60462 54000.00000 0 18538766.510 17409304.233 1835342.317 10 0 60462 54900.00000 0 18659466.669 17322111.873 -1378018.463 10 0 60462 55800.00000 0 18468587.792 16976683.060 -4564575.111 10 0 60462 56700.00000 0 17938245.761 16421054.474 -7662346.907 10 0 60462 57600.00000 0 17052434.367 15709348.411 -10611087.799 10 0 60462 58500.00000 0 15807904.473 14899329.975 -13353463.943 10 0 60462 59400.00000 0 14214517.810 14049827.409 -15836172.793 10 0 60462 60300.00000 0 12295059.727 13218125.382 -18010981.481 10 0 60462 61200.00000 0 10084518.247 12457441.971 -19835664.068 10 0 60462 62100.00000 0 7628859.153 11814596.157 -21274819.527 10 0 60462 63000.00000 0 4983348.010 11327964.256 -22300555.001 10 0 60462 63900.00000 0 2210488.830 11025811.201 -22893021.554 10 0 60462 64800.00000 0 -622335.040 10925066.491 -23040792.809 10 0 60462 65700.00000 0 -3445420.193 11030595.728 -22741079.829 10 0 60462 66600.00000 0 -6189396.715 11334997.757 -21999778.755 10 0 60462 67500.00000 0 -8787866.646 11818935.299 -20831350.859 10 0 60462 68400.00000 0 -11179918.671 12451984.702 -19258537.655 10 0 60462 69300.00000 0 -13312415.676 13193968.671 -17311916.785 10 0 60462 70200.00000 0 -15141961.256 13996715.738 -15029307.263 10 0 60462 71100.00000 0 -16636464.671 14806172.392 -12455035.409 10 0 60462 72000.00000 0 -17776240.276 15564778.963 -9639075.480 10 0 60462 72900.00000 0 -18554596.881 16214009.324 -6636081.378 10 0 60462 73800.00000 0 -18977893.605 16696967.479 -3504327.934 10 0 60462 74700.00000 0 -19065061.036 16960931.620 -304582.172 10 0 60462 75600.00000 0 -18846608.777 16959738.333 2901073.683 10 0 60462 76500.00000 0 -18363161.926 16655906.233 6050444.636 10 0 60462 77400.00000 0 -17663588.708 16022409.167 9082427.427 10 0 60462 78300.00000 0 -16802798.524 15044023.751 11938193.720 10 0 60462 79200.00000 0 -15839303.457 13718193.824 14562329.084 10 0 60462 80100.00000 0 -14832646.008 12055374.568 16903905.722 10 0 60462 81000.00000 0 -13840801.348 10078840.796 18917468.364 10 0 60462 81900.00000 0 -12917663.261 7823966.172 20563914.505 10 0 60462 82800.00000 0 -12110719.324 5337002.191 21811252.214 10 0 60462 83700.00000 0 -11459012.850 2673406.428 22635221.167 10 0 60462 84600.00000 0 -10991477.048 -104211.710 23019765.140 10 0 60462 85500.00000 0 -10725711.306 -2928443.639 22957346.894 99